Location: Jetmore Motorplex
(37.9889°N, 99.8876°W)
Time: 09:57:25
(UTC+00:00)

Cosmos 1939 Rocket - Pass Details

Date: 17 February 2020
Orbit: 532 x 585 km, 97.4° (Epoch: 09 April)

Event Time Altitude Azimuth Distance (km) Brightness Sun altitude
Rises 01:42:47 0° 179° (S) 2,756 6.4 -17.1°
Reaches altitude 10° 01:44:58 10° 185° (S) 1,871 5.6 -17.5°
Maximum altitude 01:48:54 49° 261° (W) 751 3.9 -18.3°
Drops below altitude 10° 01:52:56 10° 337° (NNW) 1,907 5.8 -19.1°
Sets 01:55:10 0° 343° (NNW) 2,815 6.7 -19.5°
